sat.trackr.live / text

‹ back to catalog

STARLINK-32185

NORAD 60341 · 2024-136N

PAYLOAD ACTIVE UNKNOWN

§ Identity

Operator
Country
US
Launch date
2024-08-02
Launch site
AFETR
Launch vehicle
Mass (kg)
RCS (m²)

Purposes: comms

External: N2YO · Heavens-Above · Gunter

§ Orbital elements

Epoch: 2026-05-25T02:15:42.754176Z

Period
94.11 min
Inclination
53.1605°
Eccentricity
0.0001343
Mean motion
15.30195638 rev/d
Perigee alt
474.3 km
Apogee alt
476.1 km
Semi-major
6,853.4 km
B*
1.8324e-5
RAAN
80.6840°
Arg perigee
81.2641°
Mean anomaly
278.8511°
Rev number
10,136

§ Raw data

STARLINK-321851 60341U 24136N   26145.09424484  .00000183  00000+0  18324-4 0  99962 60341  53.1605  80.6840 0001343  81.2641 278.8511 15.30195638101369

JSON: /api/v1/satellites/60341 · /tle

For live sub-satellite position, see the globe view (requires WebGL).

§ Visibility from observer

Set your observer location to see the next 7 days of passes ≥ 10°. The values pass through the URL so the page stays shareable.

No JS? Fill the form by hand. The geolocation button needs JavaScript.